This is the latest recevied weather packets stored in our database for station/object OE-11272. If no packets are shown the sender has not sent any weather packets the latest 10 day(s).
| Time | Temp. | Humidity | Pressure | Rain* | Wind** | Luminosity | Snow |
|---|---|---|---|---|---|---|---|
| 1788080725 | 22.22° C | 66% | 1016.6 hPa | 0 mm | - | 650 W/m² | - |
| 1788080126 | 21.67° C | 67% | 1016.9 hPa | 0 mm | - | 625 W/m² | - |
| 1788079299 | 21.67° C | 68% | 1016.9 hPa | 0 mm | - | 606 W/m² | - |
| 1788078925 | 22.22° C | 69% | 1016.9 hPa | 0 mm | - | 581 W/m² | - |
| 1788078326 | 21.67° C | 71% | 1017 hPa | 0 mm | - | 562 W/m² | - |
| 1788077498 | 20.56° C | 76% | 1017.3 hPa | 0 mm | - | 537 W/m² | - |
| 1788077126 | 20.56° C | 76% | 1017.2 hPa | 0 mm | - | 512 W/m² | - |
| 1788076526 | 20.56° C | 79% | 1017.3 hPa | 0 mm | - | 493 W/m² | - |
| 1788075698 | 20° C | 81% | 1017.5 hPa | 0 mm | - | 468 W/m² | - |
| 1788075325 | 19.44° C | 84% | 1017.6 hPa | 0 mm | - | 450 W/m² | - |
| 1788074726 | 19.44° C | 86% | 1017.6 hPa | 0 mm | - | 412 W/m² | - |
| 1788073899 | 18.33° C | 86% | 1017.9 hPa | 0 mm | - | 369 W/m² | - |
| 1788073525 | 18.89° C | 85% | 1017.8 hPa | 0 mm | - | 356 W/m² | - |
| 1788072925 | 18.33° C | 86% | 1018 hPa | 0 mm | - | 325 W/m² | - |
| 1788072099 | 18.33° C | 87% | 1017.9 hPa | 0 mm | - | 300 W/m² | - |
| 1788071726 | 17.78° C | 90% | 1018.1 hPa | 0 mm | - | 269 W/m² | - |
| 1788071126 | 17.78° C | 90% | 1018.1 hPa | 0 mm | - | 237 W/m² | - |
| 1788070299 | 17.22° C | 92% | 1018.2 hPa | 0 mm | - | 212 W/m² | - |
| 1788069925 | 16.11° C | 98% | 1018.3 hPa | 0 mm | - | 181 W/m² | - |
| 1788069326 | 16.11° C | 95% | 1018.3 hPa | 0 mm | - | 119 W/m² | - |
| 1788068499 | 15.56° C | 99% | 1018.4 hPa | 0 mm | - | 50 W/m² | - |
| 1788068126 | 15° C | 100% | 1018.6 hPa | 0 mm | - | 44 W/m² | - |
| 1788067526 | 14.44° C | 100% | 1018.8 hPa | 0 mm | - | 37 W/m² | - |
| 1788066699 | 14.44° C | 100% | 1018.7 hPa | 0 mm | - | 25 W/m² | - |
| 1788066325 | 15° C | 99% | 1018.5 hPa | 0 mm | - | 12 W/m² | - |
* Rain latest hour (hover to see other rain measurements)
** Current wind speed in m/s (hover to see current wind gust speed)